timestamp,surface_pressure_avg,surface_temp_avg,battery_voltage,lat,long
2019-04-18 00:00:00+00:00,358.6246,1.4,13.05,47.84626,-54.09684
2019-04-18 00:10:00+00:00,352.363,1.4,12.89,47.84626,-54.09684
2019-04-18 00:20:00+00:00,347.3963,1.4,12.97,47.84626,-54.09684
2019-04-18 00:30:00+00:00,344.0213,1.38,12.97,47.84626,-54.09684
2019-04-18 00:40:00+00:00,334.433,1.38,12.97,47.84626,-54.09684
2019-04-18 00:50:00+00:00,326.3297,1.36,12.97,47.84626,-54.09684
2019-04-18 01:00:00+00:00,323.5313,1.26,12.89,47.84626,-54.09684
2019-04-18 01:10:00+00:00,315.7531,1.15,12.81,47.84626,-54.09684
2019-04-18 01:20:00+00:00,303.0864,1.29,12.89,47.84626,-54.09684
2019-04-18 01:30:00+00:00,295.7297,1.2,12.89,47.84626,-54.09684
2019-04-18 01:40:00+00:00,292.8513,1.2,12.97,47.84626,-54.09684
2019-04-18 01:50:00+00:00,283.7281,1.2,12.97,47.84626,-54.09684
2019-04-18 02:00:00+00:00,272.5397,1.2,12.89,47.84626,-54.09684
2019-04-18 02:10:00+00:00,267.083,1.2,12.81,47.84626,-54.09684
2019-04-18 02:20:00+00:00,262.2764,1.2,12.89,47.84626,-54.09684
2019-04-18 02:30:00+00:00,252.2548,1.2,12.89,47.84626,-54.09684
2019-04-18 02:40:00+00:00,242.6664,1.2,12.97,47.84626,-54.09684
2019-04-18 02:50:00+00:00,238.6014,1.2,12.97,47.84626,-54.09684
2019-04-18 03:00:00+00:00,234.1931,1.2,12.89,47.84626,-54.09684
2019-04-18 03:10:00+00:00,225.7398,1.19,12.81,47.84626,-54.09684
2019-04-18 03:20:00+00:00,221.0015,1.17,12.89,47.84626,-54.09684
2019-04-18 03:30:00+00:00,221.1465,1.17,12.89,47.84626,-54.09684
2019-04-18 03:40:00+00:00,218.0314,1.17,12.89,47.84626,-54.09684
2019-04-18 03:50:00+00:00,210.3581,1.11,12.89,47.84626,-54.09684
2019-04-18 04:00:00+00:00,206.7831,1.1,12.81,47.84626,-54.09684
2019-04-18 04:10:00+00:00,207.7215,1.1,12.73,47.84626,-54.09684
2019-04-18 04:20:00+00:00,204.4915,1.1,12.81,47.84626,-54.09684
2019-04-18 04:30:00+00:00,201.2664,1.1,12.89,47.84626,-54.09684
2019-04-18 04:40:00+00:00,204.2031,1.1,12.89,47.84626,-54.09684
2019-04-18 04:50:00+00:00,206.8731,1.1,12.89,47.84626,-54.09684
2019-04-18 05:00:00+00:00,205.3815,1.1,12.81,47.84626,-54.09684
2019-04-18 05:10:00+00:00,205.8381,1.1,12.73,47.84626,-54.09684
2019-04-18 05:20:00+00:00,210.4915,1.06,12.81,47.84626,-54.09684
2019-04-18 05:30:00+00:00,213.7031,1.06,12.81,47.84626,-54.09684
2019-04-18 05:40:00+00:00,215.8415,1.0,12.89,47.84626,-54.09684
2019-04-18 05:50:00+00:00,219.2565,1.0,12.89,47.84626,-54.09684
2019-04-18 06:00:00+00:00,223.4264,1.0,12.81,47.84626,-54.09684
2019-04-18 06:10:00+00:00,229.6414,1.0,12.73,47.84626,-54.09684
2019-04-18 06:20:00+00:00,236.8848,1.0,12.81,47.84626,-54.09684
2019-04-18 06:30:00+00:00,242.4448,1.0,12.81,47.84626,-54.09684
2019-04-18 06:40:00+00:00,247.128,0.92,12.89,47.84626,-54.09684
2019-04-18 06:50:00+00:00,253.4631,0.9,12.89,47.84626,-54.09684
2019-04-18 07:00:00+00:00,260.6447,0.93,12.81,47.84626,-54.09684
2019-04-18 07:10:00+00:00,267.528,0.94,12.73,47.84626,-54.09684
2019-04-18 07:20:00+00:00,273.6248,0.9,12.81,47.84626,-54.09684
2019-04-18 07:30:00+00:00,281.7731,0.87,12.81,47.84626,-54.09684
2019-04-18 07:40:00+00:00,289.1964,0.8,12.89,47.84626,-54.09684
2019-04-18 07:50:00+00:00,294.8597,0.85,12.89,47.84626,-54.09684
2019-04-18 08:00:00+00:00,301.6379,0.89,12.81,47.84626,-54.09684
2019-04-18 08:10:00+00:00,311.778,0.87,12.73,47.84626,-54.09684
2019-04-18 08:20:00+00:00,319.908,0.86,12.81,47.84626,-54.09684
2019-04-18 08:30:00+00:00,325.083,0.84,12.81,47.84626,-54.09684
2019-04-18 08:40:00+00:00,332.6747,0.8,12.81,47.84626,-54.09684
2019-04-18 08:50:00+00:00,338.4296,0.8,12.89,47.84626,-54.09684
2019-04-18 09:00:00+00:00,343.4313,0.8,12.81,47.84626,-54.09684
2019-04-18 09:10:00+00:00,350.4229,0.71,12.73,47.84626,-54.09684
2019-04-18 09:20:00+00:00,358.1013,0.7,12.81,47.84626,-54.09684
2019-04-18 09:30:00+00:00,362.5147,0.6,12.81,47.84626,-54.09684
2019-04-18 09:40:00+00:00,367.1013,0.55,12.81,47.84626,-54.09684
2019-04-18 09:50:00+00:00,372.1796,0.4,12.89,47.84626,-54.09684
2019-04-18 10:00:00+00:00,371.8962,0.3,12.81,47.84626,-54.09684
2019-04-18 10:10:00+00:00,373.5529,0.2,12.73,47.84626,-54.09684
2019-04-18 10:20:00+00:00,379.0629,0.19,12.89,47.84626,-54.09684
2019-04-18 10:30:00+00:00,381.0479,0.1,12.97,47.84626,-54.09684
2019-04-18 10:40:00+00:00,378.4678,0.1,12.97,47.84626,-54.09684
2019-04-18 10:50:00+00:00,378.3296,0.1,13.05,47.84626,-54.09684
2019-04-18 11:00:00+00:00,383.1013,0.1,13.13,47.84626,-54.09684
2019-04-18 11:10:00+00:00,383.838,0.1,13.05,47.84626,-54.09684
2019-04-18 11:20:00+00:00,378.6063,0.1,13.21,47.84626,-54.09684
2019-04-18 11:30:00+00:00,375.8928,0.1,13.29,47.84626,-54.09684
2019-04-18 11:40:00+00:00,376.3579,0.1,13.37,47.84626,-54.09684
2019-04-18 11:50:00+00:00,372.8712,0.1,13.44,47.84626,-54.09684
2019-04-18 12:00:00+00:00,366.1829,0.23,13.37,47.84626,-54.09684
2019-04-18 12:10:00+00:00,362.2512,0.36,13.29,47.84626,-54.09684
2019-04-18 12:20:00+00:00,359.7379,0.4,13.44,47.84626,-54.09684
2019-04-18 12:30:00+00:00,353.8395,0.43,13.44,47.84626,-54.09684
2019-04-18 12:40:00+00:00,347.5363,0.45,13.53,47.84626,-54.09684
2019-04-18 12:50:00+00:00,342.6663,0.45,13.53,47.84626,-54.09684
2019-04-18 13:00:00+00:00,337.4014,0.45,13.44,47.84626,-54.09684
2019-04-18 13:10:00+00:00,327.3831,0.44,13.37,47.84626,-54.09684
2019-04-18 13:20:00+00:00,314.738,0.42,13.53,47.84626,-54.09684
2019-04-18 13:30:00+00:00,307.3497,0.4,13.53,47.84626,-54.09684
2019-04-18 13:40:00+00:00,301.4497,0.4,13.6,47.84626,-54.09684
2019-04-18 13:50:00+00:00,287.3331,0.4,13.68,47.84626,-54.09684
2019-04-18 14:00:00+00:00,274.2463,0.4,13.6,47.84626,-54.09684
2019-04-18 14:10:00+00:00,266.4931,0.4,13.53,47.84626,-54.09684
2019-04-18 14:20:00+00:00,256.6431,0.4,13.68,47.84626,-54.09684
2019-04-18 14:30:00+00:00,243.3314,0.4,13.68,47.84626,-54.09684
2019-04-18 14:40:00+00:00,235.6548,0.41,13.84,47.84626,-54.09684
2019-04-18 14:50:00+00:00,227.1514,0.3,13.84,47.84626,-54.09684
2019-04-18 15:00:00+00:00,213.8981,0.39,13.84,47.84626,-54.09684
2019-04-18 15:10:00+00:00,204.9865,0.4,13.76,47.84626,-54.09684
2019-04-18 15:20:00+00:00,201.1581,0.4,13.92,47.84626,-54.09684
2019-04-18 15:30:00+00:00,192.9865,0.45,14.0,47.84626,-54.09684
2019-04-18 15:40:00+00:00,182.8198,0.49,14.16,47.84626,-54.09684
2019-04-18 15:50:00+00:00,178.1815,0.49,14.32,47.84626,-54.09684
2019-04-18 16:00:00+00:00,175.7998,0.3,14.32,47.84626,-54.09684
2019-04-18 16:10:00+00:00,172.2265,0.3,14.24,47.84626,-54.09684
2019-04-18 16:20:00+00:00,171.0981,0.28,14.4,47.84626,-54.09684
2019-04-18 16:30:00+00:00,169.2481,0.2,14.48,47.84626,-54.09684
2019-04-18 16:40:00+00:00,164.8448,0.1,14.56,47.84626,-54.09684
2019-04-18 16:50:00+00:00,164.9265,0.1,14.64,47.84626,-54.09684
2019-04-18 17:00:00+00:00,170.6848,0.1,14.56,47.84626,-54.09684
2019-04-18 17:10:00+00:00,171.1315,0.1,14.56,47.84626,-54.09684
2019-04-18 17:20:00+00:00,171.1581,0.29,14.64,47.84626,-54.09684
2019-04-18 17:30:00+00:00,175.9031,0.38,14.64,47.84626,-54.09684
2019-04-18 17:40:00+00:00,178.7231,0.4,14.64,47.84626,-54.09684
2019-04-18 17:50:00+00:00,179.6115,0.48,14.72,47.84626,-54.09684
2019-04-18 18:00:00+00:00,183.9881,0.5,14.56,47.84626,-54.09684
2019-04-18 18:10:00+00:00,189.1148,0.5,14.56,47.84626,-54.09684
2019-04-18 18:20:00+00:00,192.2498,0.52,14.72,47.84626,-54.09684
2019-04-18 18:30:00+00:00,197.7365,0.6,14.64,47.84626,-54.09684
2019-04-18 18:40:00+00:00,206.0281,0.6,14.64,47.84626,-54.09684
2019-04-18 18:50:00+00:00,211.8564,0.6,14.64,47.84626,-54.09684
2019-04-18 19:00:00+00:00,215.3814,0.57,14.48,47.84626,-54.09684
2019-04-18 19:10:00+00:00,223.1265,0.55,14.4,47.84626,-54.09684
2019-04-18 19:20:00+00:00,230.0831,0.5,14.48,47.84626,-54.09684
2019-04-18 19:30:00+00:00,235.1364,0.55,14.48,47.84626,-54.09684
2019-04-18 19:40:00+00:00,242.9381,0.62,14.48,47.84626,-54.09684
2019-04-18 19:50:00+00:00,252.0281,0.7,14.48,47.84626,-54.09684
2019-04-18 20:00:00+00:00,257.7364,0.7,14.32,47.84626,-54.09684
2019-04-18 20:10:00+00:00,265.5998,0.75,14.24,47.84626,-54.09684
2019-04-18 20:20:00+00:00,276.7797,0.8,14.32,47.84626,-54.09684
2019-04-18 20:30:00+00:00,285.813,0.66,14.24,47.84626,-54.09684
2019-04-18 20:40:00+00:00,291.2297,0.67,14.32,47.84626,-54.09684
2019-04-18 20:50:00+00:00,299.3996,0.6,14.32,47.84626,-54.09684
2019-04-18 21:00:00+00:00,308.6464,0.62,14.16,47.84626,-54.09684
2019-04-18 21:10:00+00:00,316.4064,0.67,14.08,47.84626,-54.09684
2019-04-18 21:20:00+00:00,322.8963,0.69,14.08,47.84626,-54.09684
2019-04-18 21:30:00+00:00,332.3913,0.69,14.08,47.84626,-54.09684
2019-04-18 21:40:00+00:00,340.0397,0.69,14.08,47.84626,-54.09684
2019-04-18 21:50:00+00:00,344.7746,0.69,14.0,47.84626,-54.09684
2019-04-18 22:00:00+00:00,350.5179,0.67,13.92,47.84626,-54.09684
2019-04-18 22:10:00+00:00,355.3663,0.6,13.68,47.84626,-54.09684
2019-04-18 22:20:00+00:00,360.9363,0.6,13.68,47.84626,-54.09684
2019-04-18 22:30:00+00:00,364.6046,0.6,13.68,47.84626,-54.09684
2019-04-18 22:40:00+00:00,369.1978,0.59,13.6,47.84626,-54.09684
2019-04-18 22:50:00+00:00,371.1163,0.54,13.6,47.84626,-54.09684
2019-04-18 23:00:00+00:00,371.938,0.5,13.44,47.84626,-54.09684
2019-04-18 23:10:00+00:00,373.7545,0.5,13.29,47.84626,-54.09684
2019-04-18 23:20:00+00:00,373.5312,0.4,13.29,47.84626,-54.09684
2019-04-18 23:30:00+00:00,372.0113,0.3,13.29,47.84626,-54.09684
2019-04-18 23:40:00+00:00,370.2795,0.2,13.29,47.84626,-54.09684
2019-04-18 23:50:00+00:00,364.763,0.1,13.21,47.84626,-54.09684
